This demonstration page uses our WeatherBlox Daily Observations layout. Learn more.

Left ArrowRight Arrow

Hourly Observations for May 23, 2019

Temp ( °F °C ) Dew Point ( °F °C ) Humidity (%) Winds ( mph kmh ) Pressure ( in mb ) Visibility ( mi km ) Precip ( " mm )
12:15 am 00:15 Clear 63 17 54 12 73 73 S 3 6 30.24 1024 10 16.0934 0 0
12:35 am 00:35 Clear 63 17 54 12 73 73 S 3 6 30.24 1024 10 16.0934 0 0
12:55 am 00:55 Clear 63 17 54 12 73 73 SSW 5 7 30.23 1024 10 16.0934 0 0
1:15 am 01:15 Clear 61 16 54 12 77 77 S 7 11 30.22 1023 10 16.0934 0 0
1:35 am 01:35 Clear 63 17 54 12 73 73 S 6 9 30.22 1023 10 16.0934 0 0
1:55 am 01:55 Clear 61 16 54 12 77 77 S 5 7 30.21 1023 10 16.0934 0 0
2:15 am 02:15 Clear 61 16 54 12 77 77 S 3 6 30.21 1023 10 16.0934 0 0
2:35 am 02:35 Clear 61 16 54 12 77 77 S 6 9 30.21 1023 10 16.0934 0 0
2:55 am 02:55 Clear 61 16 54 12 77 77 S 3 6 30.2 1023 10 16.0934 0 0
3:15 am 03:15 Clear 61 16 54 12 77 77 S 3 6 30.2 1023 10 16.0934 0 0
3:35 am 03:35 Clear 61 16 54 12 77 77 SSW 3 6 30.2 1023 10 16.0934 0 0
3:55 am 03:55 Partly Cloudy 61 16 54 12 77 77 Calm 30.2 1023 10 16.0934 0 0
4:15 am 04:15 Partly Cloudy 61 16 54 12 77 77 Calm 30.19 1022 10 16.0934 0 0
4:35 am 04:35 Partly Cloudy 61 16 54 12 77 77 S 6 9 30.19 1022 10 16.0934 0 0
4:55 am 04:55 Mostly Cloudy 61 16 54 12 77 77 S 5 7 30.19 1022 10 16.0934 0 0
5:15 am 05:15 Partly Cloudy 61 16 54 12 77 77 S 3 6 30.18 1022 10 16.0934 0 0
5:35 am 05:35 Mostly Cloudy 61 16 54 12 77 77 S 5 7 30.18 1022 10 16.0934 0 0
5:55 am 05:55 Mostly Cloudy 61 16 54 12 77 77 S 5 7 30.18 1022 10 16.0934 0 0
6:15 am 06:15 Partly Cloudy 61 16 54 12 77 77 S 6 9 30.17 1022 10 16.0934 0 0
6:35 am 06:35 Partly Cloudy 61 16 54 12 77 77 S 6 9 30.18 1022 10 16.0934 0 0
6:55 am 06:55 Mostly Cloudy 61 16 54 12 77 77 S 6 9 30.18 1022 10 16.0934 0 0
7:15 am 07:15 Mostly Cloudy 61 16 54 12 77 77 S 6 9 30.18 1022 10 16.0934 0 0
7:35 am 07:35 Partly Cloudy 63 17 55 13 77 77 S 6 9 30.18 1022 10 16.0934 0 0
7:55 am 07:55 Sunny 63 17 55 13 77 77 S 7 11 30.18 1022 10 16.0934 0 0
8:15 am 08:15 Partly Cloudy 64 18 55 13 73 73 S 7 11 30.17 1022 10 16.0934 0 0
8:35 am 08:35 Cloudy 64 18 57 14 78 78 S 6 9 30.16 1021 10 16.0934 0 0
8:55 am 08:55 Cloudy 64 18 57 14 78 78 S 5 7 30.16 1021 10 16.0934 0 0
9:15 am 09:15 Cloudy 68 20 59 15 73 73 Calm 30.16 1021 10 16.0934 0 0
9:35 am 09:35 Cloudy 68 20 61 16 78 78 Calm 30.15 1021 10 16.0934 0 0
9:55 am 09:55 Mostly Cloudy 68 20 61 16 78 78 Calm 30.15 1021 10 16.0934 0 0
10:15 am 10:15 Partly Cloudy 70 21 61 16 73 73 SSW 3 6 30.14 1021 10 16.0934 0 0
10:35 am 10:35 Sunny 72 22 63 17 73 73 Calm 30.14 1021 10 16.0934 0 0
10:55 am 10:55 Partly Cloudy 72 22 63 17 73 73 Calm 30.13 1020 10 16.0934 0 0
11:15 am 11:15 Partly Cloudy 73 23 63 17 69 69 Calm 30.13 1020 10 16.0934 0 0
11:35 am 11:35 Partly Cloudy 73 23 64 18 74 74 Calm 30.12 1020 10 16.0934 0 0
11:55 am 11:55 Mostly Cloudy 75 24 64 18 69 69 Calm 30.12 1020 10 16.0934 0 0
12:15 pm 12:15 Cloudy 77 25 66 19 69 69 Calm 30.09 1019 10 16.0934 0 0
12:35 pm 12:35 Mostly Cloudy 79 26 68 20 70 70 SSW 5 7 30.08 1019 10 16.0934 0 0
12:55 pm 12:55 Partly Cloudy 81 27 70 21 70 70 S 5 7 30.06 1018 10 16.0934 0 0
1:15 pm 13:15 Sunny 82 28 70 21 66 66 S 5 7 30.05 1018 10 16.0934 0 0
1:35 pm 13:35 Sunny 84 29 72 22 66 66 Calm 30.05 1018 10 16.0934 0 0
1:55 pm 13:55 Sunny 86 30 72 22 62 62 W 6 9 30.04 1017 10 16.0934 0 0
2:15 pm 14:15 Sunny 88 31 72 22 59 59 SW 9 15 30.02 1016 10 16.0934 0 0
2:35 pm 14:35 Partly Cloudy 91 33 72 22 52 52 SSW 9 15 30 1016 10 16.0934 0 0
2:55 pm 14:55 Mostly Cloudy with Thunderstorms 86 30 70 21 59 59 NW 28 44 30.02 1017 10 16.0934 0 0
3:15 pm 15:15 Cloudy with Thunderstorms 70 21 70 21 100 100 W 9 15 30.05 1018 0.75 1.207005 0 0
3:35 pm 15:35 Partly Cloudy 73 23 72 22 94 94 Calm 30.05 1018 10 16.0934 0 0
3:55 pm 15:55 Sunny 73 23 72 22 94 94 E 8 13 30.03 1017 10 16.0934 0 0
4:15 pm 16:15 Partly Cloudy 73 23 72 22 94 94 SSE 5 7 30 1016 10 16.0934 0 0
4:35 pm 16:35 Mostly Cloudy 77 25 72 22 83 83 SSE 6 9 29.98 1015 10 16.0934 0 0
4:55 pm 16:55 Sunny 79 26 72 22 79 79 SSW 7 11 29.98 1015 10 16.0934 0 0
5:15 pm 17:15 Sunny 81 27 72 22 74 74 S 6 9 29.98 1015 10 16.0934 0 0
5:35 pm 17:35 Sunny 81 27 72 22 74 74 SSE 10 17 29.98 1015 10 16.0934 0 0
5:55 pm 17:55 Sunny 79 26 72 22 79 79 SSE 12 19 29.98 1015 10 16.0934 0 0
6:15 pm 18:15 Sunny 77 25 72 22 83 83 S 8 13 29.97 1015 10 16.0934 0 0
6:35 pm 18:35 Sunny 79 26 72 22 79 79 S 7 11 29.97 1015 10 16.0934 0 0
6:55 pm 18:55 Partly Cloudy 77 25 72 22 83 83 S 7 11 29.96 1015 10 16.0934 0 0
7:15 pm 19:15 Partly Cloudy 77 25 72 22 83 83 S 6 9 29.96 1015 10 16.0934 0 0
7:35 pm 19:35 Partly Cloudy 77 25 72 22 83 83 S 5 7 29.96 1015 10 16.0934 0 0
7:55 pm 19:55 Sunny 77 25 72 22 83 83 SSW 5 7 29.96 1015 10 16.0934 0 0
8:15 pm 20:15 Sunny 75 24 72 22 89 89 SW 3 6 29.97 1015 10 16.0934 0 0
8:35 pm 20:35 Clear 73 23 72 22 94 94 SSW 6 9 29.97 1015 10 16.0934 0 0
8:55 pm 20:55 Clear 73 23 72 22 94 94 SSW 6 9 29.96 1014 10 16.0934 0 0
9:15 pm 21:15 Clear 73 23 72 22 94 94 SW 6 9 29.96 1014 10 16.0934 0 0
9:35 pm 21:35 Clear 73 23 70 21 89 89 SSW 5 7 29.97 1015 10 16.0934 0 0
9:55 pm 21:55 Clear 72 22 70 21 94 94 SSW 5 7 29.97 1015 10 16.0934 0 0
10:35 pm 22:35 Partly Cloudy 70 21 70 21 100 100 SW 6 9 29.97 1015 10 16.0934 0 0
10:55 pm 22:55 Partly Cloudy 70 21 70 21 100 100 SSW 6 9 29.97 1015 10 16.0934 0 0
11:15 pm 23:15 Clear 70 21 70 21 100 100 SW 5 7 29.96 1015 10 16.0934 0 0
11:35 pm 23:35 Clear 70 21 70 21 100 100 WSW 6 9 29.95 1014 10 16.0934 0 0
11:55 pm 23:55 Clear 72 22 68 20 88 88 W 8 13 29.95 1014 10 16.0934 0 0

Powered by AerisWeather